Terminal Aerodrome Forecast
Issued by NWS New Orleans/Baton Rouge, LA

Home | Current Version | Previous Version | Text Only | Print | Product List | Glossary On
Versions: 1 2 3 4 5 6 7 8 9 10 11 12 13 14 15 16 17 18 19 20 21 22 23 24 25 26 27 28
000
FTUS44 KLIX 010500
TAFNEW
TAF
KNEW 010521Z 0106/0206 14004KT P6SM SCT250
     FM011500 13009KT P6SM SCT030 BKN090 PROB30 0115/0121 3SM TSRA
      BKN030CB=

USA.gov is the U.S. government's official web portal to all federal, state and local government web resources and services.